Skip Page Navigation
NASA JPL Caltech
NASA Logo - Jet Propulsion Laboratory + View the NASA Portal
+ Center for Near-Earth Object Studies
JPL Home Earth Solar System Stars & Galaxies Technology
JPL Solar System Dynamics
BODIES ORBITS EPHEMERIDES TOOLS PHYSICAL DATA DISCOVERY FAQ SITE MAP
JPL Small-Body Database Browser
Search: [ help ]  
413440 (2005 BG16)
Classification: Main-belt Asteroid          SPK-ID: 2413440
Ephemeris | Orbit Diagram | Orbital Elements | Mission Design | Physical Parameters | Discovery Circumstances ]

[ show orbit diagram ]
Orbital Elements at Epoch 2459396.5 (2021-Jul-01.0) TDB
Reference: JPL 18 (heliocentric ecliptic J2000)
 Element Value Uncertainty (1-sigma)   Units 
e .222790056433727 4.2587e-08  
a 2.28282799565265 1.3732e-08 au
q 1.774236617672705 9.439e-08 au
i 7.277530937706606 5.1156e-06 deg
node 85.14410721347761 5.1762e-05 deg
peri 14.72623909809449 5.5421e-05 deg
M 285.1787656336716 2.2474e-05 deg
tp 2459658.336736709251
(2022-Mar-19.83673671)
8.0162e-05 TDB
period 1259.81916782905
3.45
1.1367e-05
3.112e-08
d
yr
n .2857552966274997 2.5783e-09 deg/d
Q 2.791419373632596 1.6791e-08 au
  Orbit Determination Parameters
   # obs. used (total)      162  
   data-arc span      5661 days (15.50 yr)  
   first obs. used      2004-12-15  
   last obs. used      2020-06-15  
   planetary ephem.      DE441  
   SB-pert. ephem.      SB441-N16  
   condition code      0  
   norm. resid. RMS      .61025  
   source      ORB  
   producer      Otto Matic  
   solution date      2021-Apr-14 13:01:25  

Additional Information
 Earth MOID = .792311 au 
 Jupiter MOID = 2.38522 au 
 T_jup = 3.560 
[ show covariance matrix ]

Ephemeris | Orbit Diagram | Orbital Elements | Mission Design | Physical Parameters | Discovery Circumstances ]

Physical Parameter Table
Parameter Symbol Value Units Sigma Reference Notes
absolute magnitude H 17.80   n/a E2021B25  

413440 (2005 BG16)          Discovered 2004-Dec-15 by Spacewatch at Kitt Peak
Reference: Last Updated: 2014-11-10
Ephemeris | Orbit Diagram | Orbital Elements | Mission Design | Physical Parameters | Discovery Circumstances ]
ABOUT SSD CREDITS/AWARDS PRIVACY/COPYRIGHT GLOSSARY LINKS
FirstGov 2021-Aug-04 01:23 UT
(server date/time)  
NASA Home Page
Site Manager:   Ryan S. Park
Webmaster  Alan B. Chamberlin